Back to catalog

FENGYUN 1C DEB

AliveSSO
NORAD 30069·DEBRIS·🇨🇳 China

Launched May 10, 1999 from Taiyuan Satellite Launch Center

Loading…

Next Passes (next 24 hours)

TLE

FreshSource: Space-Track

Epoch: Sep 14, 2026, 04:22 UTC

1 30069U 99025PW  26257.18221829  .00000429  00000-0  28801-3 0  9995
2 30069  98.8303 236.4555 0049135   1.8805 126.7271 14.05431035  7149

Track FENGYUN 1C DEB in real time with AllMySat

Download on the App Store